Location: Newark
(48.9320°N, 2.2664°E)
Time: 01:28:15
(UTC+00:00)

Vanguard 1 Rocket - Pass Details

Date: 18 February 2020
Orbit: 650 x 4226 km, 34.3° (Epoch: 08 April)

Event Time Altitude Azimuth Distance (km) Brightness Sun altitude
Rises 03:15:03 0° 218° (SW) 3,854 - -36.1°
Reaches altitude 10° 03:20:35 10° 180° (S) 2,342 - -35.3°
Maximum altitude 03:21:35 11° 169° (S) 2,232 - -35.1°
Drops below altitude 10° 03:22:32 10° 157° (SSE) 2,203 - -35.0°
Exits shadow 03:24:43 - 133° (SE) 2,431 9.8 -34.6°
Sets 03:26:51 0° 115° (ESE) 2,958 10.5 -34.3°
